• In Portugal
  • List of Countries
  • For 7 days
  • Water Temperature
  • Satellite Maps
  • Weather Map
  • Weather Widgets
  • user-avatar
    Login

    Hourly Weather Andora

    Today, 24 February, Saturday

    Time Temperature Precipitation Wind Pressure Humidity
    00:00 -8°C° 0 mm 1 mps 613 mmHg 75%
    01:00 -8°C° 0 mm 1 mps 613 mmHg 74%
    02:00 -8°C° 0 mm 1 mps 613 mmHg 73%
    03:00 -9°C° 0 mm 1 mps 613 mmHg 72%
    04:00 -9°C° 0 mm 1 mps 613 mmHg 71%
    05:00 -8°C° 0 mm 1 mps 613 mmHg 70%
    06:00 -9°C° 0 mm 1 mps 613 mmHg 66%
    07:00 -6°C° 0 mm 1 mps 614 mmHg 61%
    08:00 -4°C° 0 mm 0 mps 615 mmHg 55%
    09:00 -2°C° 0 mm 0 mps 616 mmHg 49%
    10:00 -1°C° 0 mm 0 mps 616 mmHg 48%
    11:00 +1°C° 0 mm 1 mps 617 mmHg 47%
    12:00 +2°C° 0 mm 1 mps 617 mmHg 46%
    13:00 +2°C° 0 mm 1 mps 617 mmHg 48%
    14:00 +2°C° 0 mm 1 mps 617 mmHg 51%
    15:00 +2°C° 0 mm 1 mps 617 mmHg 53%
    16:00 0°C° 0.1 mm 1 mps 616 mmHg 61%
    17:00 -2°C° 0.1 mm 1 mps 616 mmHg 69%
    18:00 -4°C° 0.1 mm 0 mps 615 mmHg 77%
    19:00 -4°C° 0 mm 1 mps 615 mmHg 78%
    20:00 -4°C° 0 mm 1 mps 616 mmHg 79%
    21:00 -4°C° 0 mm 1 mps 616 mmHg 81%
    22:00 -6°C° 0 mm 1 mps 616 mmHg 80%
    23:00 -6°C° 0 mm 1 mps 616 mmHg 79%

    Tomorrow, 25 February, Sunday

    Time Temperature Precipitation Wind Pressure Humidity
    00:00 -6°C° 0 mm 1 mps 616 mmHg 78%
    01:00 -6°C° 0 mm 1 mps 616 mmHg 75%
    02:00 -7°C° 0 mm 2 mps 616 mmHg 73%
    03:00 -7°C° 0 mm 2 mps 615 mmHg 71%
    04:00 -7°C° 0 mm 2 mps 616 mmHg 70%
    05:00 -7°C° 0 mm 2 mps 616 mmHg 69%
    06:00 -7°C° 0 mm 2 mps 616 mmHg 68%
    07:00 -3°C° 0 mm 1 mps 617 mmHg 64%
    08:00 -1°C° 0 mm 1 mps 618 mmHg 61%
    09:00 +1°C° 0 mm 1 mps 618 mmHg 57%
    10:00 +2°C° 0 mm 1 mps 619 mmHg 57%
    11:00 +4°C° 0 mm 1 mps 619 mmHg 56%
    12:00 +4°C° 0 mm 2 mps 619 mmHg 56%
    13:00 +4°C° 0 mm 2 mps 619 mmHg 58%
    14:00 +4°C° 0 mm 2 mps 619 mmHg 59%
    15:00 +4°C° 0 mm 2 mps 618 mmHg 61%
    16:00 +1°C° 0 mm 2 mps 618 mmHg 68%
    17:00 -2°C° 0 mm 2 mps 617 mmHg 76%
    18:00 -4°C° 0 mm 2 mps 616 mmHg 84%
    19:00 -4°C° 0 mm 2 mps 616 mmHg 85%
    20:00 -5°C° 0 mm 2 mps 616 mmHg 86%
    21:00 -5°C° 0 mm 2 mps 617 mmHg 87%
    22:00 -6°C° 0 mm 2 mps 616 mmHg 84%
    23:00 -6°C° 0 mm 2 mps 616 mmHg 81%

    Day after tomorrow, 26 February, Monday

    Time Temperature Precipitation Wind Pressure Humidity
    00:00 -6°C° 0 mm 2 mps 616 mmHg 79%
    01:00 -7°C° 0 mm 2 mps 616 mmHg 78%
    02:00 -7°C° 0 mm 2 mps 616 mmHg 77%
    03:00 -7°C° 0 mm 2 mps 616 mmHg 77%
    04:00 -7°C° 0 mm 2 mps 616 mmHg 77%
    05:00 -8°C° 0 mm 2 mps 615 mmHg 77%
    06:00 -8°C° 0 mm 2 mps 615 mmHg 77%
    07:00 -6°C° 0 mm 2 mps 616 mmHg 72%
    08:00 -5°C° 0 mm 2 mps 617 mmHg 68%
    09:00 -3°C° 0 mm 2 mps 617 mmHg 64%
    10:00 -3°C° 0 mm 2 mps 618 mmHg 60%
    11:00 -2°C° 0 mm 2 mps 618 mmHg 57%
    12:00 -1°C° 0 mm 2 mps 618 mmHg 54%
    13:00 -1°C° 0 mm 2 mps 617 mmHg 57%
    14:00 -2°C° 0 mm 2 mps 617 mmHg 59%
    15:00 -2°C° 0 mm 2 mps 616 mmHg 62%
    16:00 -4°C° 0.1 mm 2 mps 616 mmHg 67%
    17:00 -5°C° 0.1 mm 2 mps 615 mmHg 73%
    18:00 -7°C° 0.1 mm 2 mps 615 mmHg 78%
    19:00 -8°C° 0.2 mm 2 mps 615 mmHg 77%
    20:00 -7°C° 0.2 mm 1 mps 615 mmHg 76%
    21:00 -8°C° 0.2 mm 1 mps 615 mmHg 75%
    22:00 -8°C° 0.2 mm 1 mps 615 mmHg 75%
    23:00 -8°C° 0.2 mm 1 mps 615 mmHg 75%

    27 February, Tuesday

    Time Temperature Precipitation Wind Pressure Humidity
    00:00 -8°C° 0.2 mm 1 mps 614 mmHg 75%
    01:00 -8°C° 0.2 mm 1 mps 614 mmHg 76%
    02:00 -8°C° 0.2 mm 1 mps 614 mmHg 76%
    03:00 -8°C° 0.2 mm 0 mps 614 mmHg 76%
    04:00 -9°C° 0.1 mm 0 mps 613 mmHg 77%
    05:00 -9°C° 0.1 mm 0 mps 613 mmHg 77%
    06:00 -9°C° 0.1 mm 0 mps 613 mmHg 77%
    07:00 -8°C° 0.1 mm 1 mps 614 mmHg 74%
    08:00 -7°C° 0.1 mm 1 mps 614 mmHg 71%
    09:00 -6°C° 0.1 mm 1 mps 615 mmHg 67%
    10:00 -6°C° 0.1 mm 1 mps 615 mmHg 66%
    11:00 -4°C° 0.1 mm 1 mps 615 mmHg 64%
    12:00 -5°C° 0.1 mm 2 mps 615 mmHg 62%
    13:00 -5°C° 0.3 mm 2 mps 615 mmHg 64%
    14:00 -5°C° 0.3 mm 2 mps 615 mmHg 66%
    15:00 -3°C° 0.3 mm 1 mps 614 mmHg 68%
    16:00 -4°C° 0.2 mm 1 mps 614 mmHg 71%
    17:00 -6°C° 0.2 mm 1 mps 614 mmHg 74%
    18:00 -7°C° 0.2 mm 1 mps 614 mmHg 77%
    19:00 -7°C° 0.2 mm 1 mps 614 mmHg 78%
    20:00 -7°C° 0.2 mm 1 mps 614 mmHg 79%
    21:00 -7°C° 0.2 mm 1 mps 614 mmHg 79%
    22:00 -7°C° 0.1 mm 1 mps 614 mmHg 80%
    23:00 -7°C° 0.1 mm 1 mps 614 mmHg 81%

    28 February, Wednesday

    Time Temperature Precipitation Wind Pressure Humidity
    00:00 -8°C° 0.1 mm 2 mps 614 mmHg 82%
    01:00 -8°C° 0 mm 2 mps 614 mmHg 82%
    02:00 -8°C° 0 mm 2 mps 614 mmHg 83%
    03:00 -8°C° 0 mm 2 mps 614 mmHg 83%
    04:00 -8°C° 0.1 mm 2 mps 613 mmHg 84%
    05:00 -8°C° 0.1 mm 2 mps 613 mmHg 84%
    06:00 -7°C° 0.1 mm 2 mps 613 mmHg 85%
    07:00 -6°C° 0.2 mm 2 mps 613 mmHg 84%
    08:00 -6°C° 0.2 mm 3 mps 613 mmHg 82%
    09:00 -5°C° 0.2 mm 3 mps 613 mmHg 81%
    10:00 -5°C° 0.6 mm 4 mps 613 mmHg 82%
    11:00 -4°C° 0.6 mm 4 mps 613 mmHg 82%
    12:00 -3°C° 0.6 mm 4 mps 612 mmHg 82%
    13:00 -3°C° 0.8 mm 4 mps 612 mmHg 83%
    14:00 -2°C° 0.8 mm 4 mps 612 mmHg 83%
    15:00 -1°C° 0.8 mm 4 mps 611 mmHg 84%
    16:00 -2°C° 0.7 mm 4 mps 611 mmHg 86%
    17:00 -2°C° 0.7 mm 4 mps 610 mmHg 89%
    18:00 -2°C° 0.7 mm 3 mps 610 mmHg 91%
    19:00 -1°C° 0.8 mm 3 mps 610 mmHg 92%
    20:00 -1°C° 0.8 mm 3 mps 610 mmHg 92%
    21:00 -1°C° 0.8 mm 3 mps 610 mmHg 92%
    22:00 -1°C° 0.8 mm 3 mps 610 mmHg 93%
    23:00 -1°C° 0.8 mm 3 mps 610 mmHg 93%

    1 March, Thursday

    Time Temperature Precipitation Wind Pressure Humidity
    00:00 -1°C° 0.8 mm 3 mps 609 mmHg 93%
    01:00 0°C° 0.7 mm 3 mps 609 mmHg 93%
    02:00 0°C° 0.7 mm 3 mps 609 mmHg 93%
    03:00 0°C° 0.7 mm 3 mps 609 mmHg 93%
    04:00 -1°C° 0.2 mm 2 mps 609 mmHg 93%
    05:00 -1°C° 0.2 mm 2 mps 609 mmHg 93%
    06:00 -1°C° 0.2 mm 2 mps 609 mmHg 93%
    07:00 +1°C° 0.1 mm 2 mps 609 mmHg 91%
    08:00 +1°C° 0.1 mm 3 mps 609 mmHg 90%
    09:00 +2°C° 0.1 mm 3 mps 610 mmHg 88%
    10:00 +2°C° 0.8 mm 3 mps 609 mmHg 87%
    11:00 +3°C° 0.8 mm 3 mps 609 mmHg 86%
    12:00 +3°C° 0.8 mm 4 mps 609 mmHg 85%
    13:00 +3°C° 0.8 mm 4 mps 609 mmHg 85%
    14:00 +3°C° 0.8 mm 4 mps 608 mmHg 85%
    15:00 +1°C° 0.8 mm 4 mps 608 mmHg 86%
    16:00 +2°C° 0.3 mm 3 mps 608 mmHg 88%
    17:00 +1°C° 0.3 mm 3 mps 607 mmHg 90%
    18:00 +1°C° 0.3 mm 3 mps 607 mmHg 92%
    19:00 +1°C° 0.5 mm 3 mps 607 mmHg 92%
    20:00 +1°C° 0.5 mm 3 mps 607 mmHg 93%
    21:00 +1°C° 0.5 mm 3 mps 607 mmHg 93%
    22:00 0°C° 0.2 mm 3 mps 607 mmHg 93%
    23:00 0°C° 0.2 mm 3 mps 607 mmHg 93%
    Show more